• Processing (Info)

  • MPEC 2014-N74 : 2014 NE63

    The following Minor Planet Electronic Circular may be linked-to from your own Web pages, but must not otherwise be redistributed electronically.

    A form allowing access to any MPEC is at the bottom of this page.


    Read MPEC 2014-N73 Read MPEC 2014-N75


    M.P.E.C. 2014-N74                                Issued 2014 July 13, 14:03 UT
    
         The Minor Planet Electronic Circulars contain information on unusual
             minor planets and routine data on comets.  They are published
       on behalf of Commission 20 of the International Astronomical Union by the
              Minor Planet Center, Smithsonian Astrophysical Observatory,
                              Cambridge, MA 02138, U.S.A.
    
                 Prepared using the Tamkin Foundation Computer Network
    
                                  MPC@CFA.HARVARD.EDU
                URL https://www.minorplanetcenter.net/    ISSN 1523-6714
    
                                       2014 NE63
    
    Observations:
         K14N63E  C2014 06 24.48597 20 33 09.78 -35 12 05.0          22.1 RLEN074F51
         K14N63E  C2014 06 24.49609 20 33 10.16 -35 12 06.8          22.1 RLEN074F51
         K14N63E  C2014 06 24.51627 20 33 10.93 -35 12 09.8          21.8 RLEN074F51
         K14N63E* C2014 07 01.51499 20 37 50.747-35 26 44.61         22.0 wLEN074F51
         K14N63E  C2014 07 01.52492 20 37 50.998-35 26 45.82         21.6 wLEN074F51
         K14N63E  C2014 07 01.54476 20 37 51.478-35 26 47.57         21.5 wLEN074F51
         K14N63E =C2014 07 03.52558 20 38 56.13 -35 29 46.8          20.9  tEN074568
         K14N63E =C2014 07 03.52683 20 38 56.16 -35 29 46.9          21.1  tEN074568
         K14N63E =C2014 07 03.52808 20 38 56.19 -35 29 47.0          20.9  tEN074568
         K14N63E =C2014 07 03.54557 20 38 56.56 -35 29 48.2          21.1  tEN074568
         K14N63E =C2014 07 03.54683 20 38 56.59 -35 29 48.2          21.1  tEN074568
         K14N63E =C2014 07 03.54808 20 38 56.62 -35 29 48.3          21.1  tEN074568
         K14N63E KC2014 07 06.59041 20 40 23.40 -35 32 37.2          20.8 RtEN074474
         K14N63E KC2014 07 06.59392 20 40 23.46 -35 32 37.9          21.5 RtEN074474
         K14N63E KC2014 07 06.61078 20 40 23.77 -35 32 38.1          20.6 RtEN074474
         K14N63E KC2014 07 06.61430 20 40 23.83 -35 32 37.9          20.5 RtEN074474
    
    Observer details:
    474 Mount John Observatory, Lake Tekapo.  Observers A. C. Gilmore,
        P. M. Kilmartin.  Measurer P. M. Kilmartin.  1.0-m f/7.7 reflector + CCD.
    568 Mauna Kea.  Observers R. J. Wainscoat, D. Woodworth.  Measurers P. Veres,
        R. J. Wainscoat.  3.6-m Canada-France-Hawaii Telescope + CCD.
    F51 Pan-STARRS 1, Haleakala.  Observers N. Primak, A. Schultz, T. Goggia,
        M. Willman.  Measurer P. Veres.  1.8-m Ritchey-Chretien + CCD.
    
    Orbital elements:
    2014 NE63                                                Earth MOID = 0.0906 AU
    Epoch 2014 May 23.0 TT = JDT 2456800.5                  MPC
    M 323.89009              (2000.0)            P               Q
    n   0.28878388     Peri.   32.25959     +0.99718948     -0.03037044
    a   2.2668394      Node   329.25737     -0.00795295     +0.86607994
    e   0.5253941      Incl.    7.69976     +0.07449761     +0.49898215
    P   3.41           H   21.0           G   0.15           U   6
    Residuals in seconds of arc
    140624 F51  0.0   0.1+    140703 568  0.0   0.1-    140706 474  0.0   0.1+
    140624 F51  0.0   0.1-    140703 568  0.0   0.1-    140706 474  0.0   0.5-
    140624 F51  0.0   0.0     140703 568  0.0   0.1-    140706 474  0.0   0.0
    140701 F51  0.1+  0.1+    140703 568  0.1-  0.1-    140706 474  0.0   0.3+
    140701 F51  0.1+  0.1-    140703 568  0.0   0.0
    140701 F51  0.2-  0.0     140703 568  0.0   0.0
    
    Ephemeris:
    2014 NE63                a,e,i = 2.27, 0.53, 8                   q = 1.0759
    Date    TT    R. A. (2000) Decl.     Delta      r     Elong.  Phase     V
    2014 06 13    20 22 47.6 -34 42 15   0.6594  1.5765   139.6    24.7    22.2
    ...
    2014 06 28    20 35 40.1 -35 19 48   0.5025  1.4719   149.5    20.5    21.4
    ...
    2014 07 06    20 40 07.7 -35 32 13   0.4301  1.4175   154.7    17.9    20.9
    ...
    2014 07 12    20 42 19.4 -35 32 31   0.3809  1.3775   158.2    15.9    20.5
    2014 07 13    20 42 35.6 -35 31 28   0.3731  1.3710   158.8    15.6    20.4
    2014 07 14    20 42 50.2 -35 30 04   0.3654  1.3644   159.3    15.2    20.3
    ...
    2014 07 20    20 43 43.9 -35 12 14   0.3216  1.3260   162.2    13.6    19.9
    ...
    2014 07 28    20 43 36.3 -34 13 17   0.2694  1.2771   164.5    12.3    19.4
    ...
    2014 08 12    20 42 17.7 -29 08 40   0.1887  1.1949   162.7    14.6    18.6
    
    A. U. Tomatic                (C) Copyright 2014 MPC           M.P.E.C. 2014-N74
    

    Read MPEC 2014-N73 Read MPEC 2014-N75


    MPEC number:

    Enter an MPEC number in one of the following forms:

    • 1997-B01 (the full form)
    • J97B01 (the packed version of the full form)
    • B01 (the abbreviated form)